Regional Weather Roundup
Issued by NWS

Home | Current Version | Previous Version | Text Only | Print | Product List | Glossary Off
Versions: 1 2 3 4 5 6 7 8 9 10 11 12 13 14 15 16 17 18 19 20 21 22 23 24 25 26 27 28 29 30 31 32 33 34 35 36 37 38 39 40 41 42 43 44 45 46 47 48 49 50

837
ASUS45 KTFX 202010
RWRMT
MONTANA REGIONAL WEATHER ROUNDUP
NATIONAL WEATHER SERVICE GREAT FALLS MT
100 PM MST FRI JAN 20 2017

NOTE: "FAIR" INDICATES FEW OR NO CLOUDS BELOW 12000 FEET WITH NO
SIGNIFICANT WEATHER AND/OR OBSTRUCTIONS TO VISIBILITY.

MTZ001>007-043-202100-
WEST OF THE DIVIDE

CITY           SKY/WX    TMP DP  RH WIND       PRES   REMARKS
KALISPELL      MOSUNNY   33  31  92 CALM      29.37F
MISSOULA       MOSUNNY   34  30  85 CALM      29.38F
BUTTE          SUNNY     29  18  63 VRB7      29.37F WCI  22
MULLAN PASS    HAZE      30  25  81 VRB3      29.27F VSB 1/4
ANACONDA         N/A     34  19  55 SE14      29.36F WCI  24
DEER LODGE       N/A     30  25  80 CALM      29.40F
EUREKA           N/A     37  30  75 CALM      29.38F
HAMILTON         N/A     27  25  93 CALM      29.37F VSB 0
PLAINS           N/A     30  26  85 CALM      29.42F VSB 0
RONAN            N/A     36  29  76 CALM      29.45F
$$

MTZ008-052>055-202100-
SOUTHWEST MONTANA

CITY           SKY/WX    TMP DP  RH WIND       PRES   REMARKS
BOZEMAN        SUNNY     27  22  81 E3        29.42F
DILLON         SUNNY     51  18  27 E3        29.39F
W YELLOWSTONE  CLOUDY    27  19  74 S12       29.44F WCI  16
ENNIS          CLOUDY    34  19  55 S17       29.44F WCI  23
TWIN BRIDGES     N/A     29  16  58 S3        29.48F
$$

MTZ009-010-012-014-046-048-049-054-202100-
EAST SLOPES AND CENTRAL MONTANA

CITY           SKY/WX    TMP DP  RH WIND       PRES   REMARKS
CUT BANK       SUNNY     39  22  50 SE9       29.33F
GREAT FALLS    SUNNY     42  25  50 SW9       29.37F
MALMSTROM AFB  SUNNY     42  28  57 SW12      29.37F
HELENA         SUNNY     33  24  69 CALM      29.40F
AUGUSTA          N/A     36  23  58 S9        29.34F WCI  29
BOWMANS CRNR     N/A     33  26  75 S13       29.34F WCI  24
CHOTEAU          N/A     41  19  42 S9        29.36F
CONRAD           N/A     38  25  60 SW2       29.44F
POWER            N/A     37  25  61 SW12      29.35F WCI  29
RAYNESFORD       N/A     42  19  40 SW13      29.36F
ULM              N/A     39  28  63 MISG      29.37F
$$

MTZ011-013-016-021-045-047-050-051-202100-
NORTH CENTRAL MONTANA

CITY           SKY/WX    TMP DP  RH WIND       PRES   REMARKS
HAVRE          SUNNY     38  30  73 SW10      29.38F WCI  31
LEWISTOWN      CLOUDY    38  28  67 CALM      29.37F
CHINOOK          N/A     43  27  52 W12       29.37F
DENTON         PTSUNNY   39  28  66 SE6       29.34F
FORT BENTON      N/A     45  25  45 MISG      29.39F
GEYSER         PTSUNNY   42  22  43 W14       29.35F
GRASS RANGE      N/A     42  25  51 W7        29.34F
JUDITH GAP       N/A     38  25  60 NW8       29.36F WCI  32
ROY              N/A     43  28  55 MISG      29.36F
STANFORD         N/A     40  22  48 E6        29.35F
WINIFRED         N/A     41  24  51 W10       29.36F
$$

MTZ017>020-022>027-061-062-202100-
NORTHEAST MONTANA

CITY           SKY/WX    TMP DP  RH WIND       PRES   REMARKS
GLASGOW        CLOUDY    35  28  75 NW6       29.37F WCI  30
JORDAN           N/A     39  32  76 W7        29.38F
SIDNEY         CLOUDY    35  25  66 S5        29.36F
WOLF POINT     CLOUDY    34  28  79 SW9       29.37F WCI  27
PLENTYWOOD       N/A     36  27  69 S3        29.34S
POPLAR           N/A     30  25  80 E3        29.38R
SCOBEY           N/A     31  25  78 S1        29.37F
$$

MTZ028>42-056>058-202100-
SOUTHCENTRAL AND SOUTHEAST MONTANA

CITY           SKY/WX    TMP DP  RH WIND       PRES   REMARKS
BAKER          CLOUDY    29  26  89 W10       29.35F WCI  20
BILLINGS       CLOUDY    38  28  67 SW8       29.40F
LIVINGSTON     SUNNY     43  17  35 SW23      29.38F
MILES CITY     CLOUDY    36  32  85 W7        29.39F WCI  30
BIG TIMBER     SUNNY     43  19  39 W20       29.40F
EKALAKA          N/A     33  30  89 W13       29.40F VSB 0   WCI  24
FORSYTH          N/A     37  37 100 W3        29.39F
HARLOWTON      PTSUNNY   40  22  49 W21       29.37F
LAUREL           N/A     36  24  62 SW1       29.44F
$$

REGIONAL REPORTS...DAKOTAS

CITY           SKY/WX    TMP DP  RH WIND       PRES   REMARKS
WILLISTON      CLOUDY    29  23  78 SW6       29.35F WCI  23
MINOT          SUNNY     28  22  78 S12       29.34F WCI  18
DICKINSON      CLOUDY    30  26  85 NW10      29.29F WCI  21
BEACH            N/A     32  28  86 W14       29.36F WCI  22
CROSBY           N/A     28  27  93 W7        29.34F WCI  21
TIOGA            N/A     27  27 100 W6        29.33F WCI  20
WATFORD CITY     N/A     30  27  86 SW5       29.34F
BISMARCK       CLOUDY    30  29  96 W5        29.34F FOG
GRAND FORKS    FOG       36  33  89 SE9       29.46F VSB 1   WCI  29
FARGO          CLOUDY    38  35  89 SE12      29.45F FOG     WCI  30
BUFFALO SD       N/A     37  31  78 NW22      29.24F WCI  26
RAPID CITY     SUNNY     42  31  64 NW23G31   29.29F
$$

REGIONAL REPORTS...WYOMING/IDAHO/WASHINGTON

CITY           SKY/WX    TMP DP  RH WIND       PRES   REMARKS
GILLETTE       CLOUDY    34  32  92 W8        29.39F WCI  27
SHERIDAN       CLOUDY    36  32  85 S5        29.40F
BUFFALO WY     CLOUDY    34  30  85 NW10      29.41F WCI  26
CODY           CLOUDY    38  18  44 NW8       29.40F
YELLOWSTONE LA   N/A     22  18  85 CALM      29.43F
IDAHO FALLS    MOSUNNY   26  25  96 NW7       29.47F WCI  18
SALMON         SUNNY     27  19  74 SE5       29.42F
BOISE          CLOUDY    42  27  55 SE22G30   29.29F
SPOKANE        MOSUNNY   39  31  72 E9        29.29F
$$

REGIONAL REPORTS...ALBERTA

CITY           SKY/WX    TMP DP  RH WIND       PRES   REMARKS
EDMONTON       MOSUNNY   37  18  44 SE2       29.30F
CALGARY        MOSUNNY   41  18  38 NW6       29.28F
LETHBRIDGE     MOSUNNY   43  25  49 W14       29.32F
MEDICINE HAT   PTSUNNY   41  27  56 SW9       29.32F
WATERTON GATE    N/A     41  16  36 SW14G20     N/A
CARDSTON         N/A     45  21  39 SE3         N/A
MILK RIVER       N/A     43  21  42 NW3         N/A
$$

REGIONAL REPORTS...SASKATCHEWAN

CITY           SKY/WX    TMP DP  RH WIND       PRES   REMARKS
SWIFT CURRENT  CLOUDY    39  27  60 W14       29.29F WCI  31
REGINA         PTSUNNY   30  27  86 CALM      29.30F
SASKATOON      CLOUDY    32  28  86 NW6       29.31F WCI  26
CYPRESS HILLS    N/A     39  16  38 W5          N/A
VAL MARIE        N/A     37  28  70 W9          N/A  WCI  31
ROCKGLEN         N/A     37  27  65 W7          N/A
ASSINIBOIA       N/A     28  19  69 SE5         N/A
$$




USA.gov is the U.S. government's official web portal to all federal, state and local government web resources and services.